Flag for U.S.A. Weather past 2 weeks in Sidney, Montana, U.S.A.

Now
18 °F

Overcast.


Feels Like: 2 °F
Forecast: 4 / 24 °F
Wind: 18 mph from Northeast

Location: Sidney-Richland

Current Time: Jan 31, 2015 at 9:53:27 AM

Latest Report: Jan 31, 2015 at 9:15 AM


Visibility: 8 mi

Pressure: 30.21 "Hg

Humidity: 79%

Dew point: 12 °F

Location of SidneyLocation

Historic Weather in Sidney — Graph

°F

Sidney temperature yesterday

Maximum temperature yesterday: 43 °F (at 12:15 PM)
Minimum temperature yesterday: 21 °F (at 4:15 AM)
Average temperature yesterday: 30 °F

Past Weeks' High & Low Weather Summary

 TemperatureHumidityPressure
High54 °F (Jan 27, 2:15 PM)100% (Jan 26, 10:55 PM)30.51 "Hg (Jan 26, 10:55 PM)
Low18 °F (Jan 16, 8:15 AM)49% (Jan 22, 12:15 PM)29.54 "Hg (Jan 16, 8:15 PM)
Average34 °F76%29.99 "Hg
* Reported Jan 16 8:15 AM — Jan 31 8:35 AM, Sidney, Weather by CustomWeather, © 2014

Note: Actual official high and low records may vary slightly from our data, if they occured in-between our weather recording intervals... More about our weather records

Advertising

Sidney weather history for previous 24 hours

 ConditionsComfort  
Time TempWeatherWind HumidityBarometerVisibility
8:35 AM
Jan 31
21 °FLow clouds.16 mph86%30.19 "Hg8 mi
8:15 AM21 °FLow clouds.16 mph86%30.19 "Hg5 mi
7:55 AM21 °FLow clouds.14 mph93%30.19 "Hg4 mi
7:35 AM21 °FLow clouds.16 mph93%30.18 "Hg5 mi
7:15 AM23 °FLow clouds.13 mph86%30.18 "Hg4 mi
6:55 AM25 °FLow clouds.12 mph86%30.18 "Hg8 mi
6:35 AM25 °FLow clouds.12 mph86%30.18 "Hg6 mi
6:15 AM25 °FLow clouds.10 mph86%30.18 "Hg7 mi
5:55 AM25 °FLow clouds.9 mph86%30.18 "Hg3 mi
5:35 AM25 °FLow clouds.12 mph86%30.17 "Hg4 mi
5:15 AM25 °FLow clouds.13 mph86%30.17 "Hg5 mi
4:55 AM25 °FLow clouds.13 mph86%30.17 "Hg5 mi
4:35 AM25 °FLow clouds.12 mph86%30.16 "Hg3 mi
4:15 AM25 °FLow clouds.12 mph86%30.16 "Hg3 mi
3:55 AM25 °FLow clouds.9 mph86%30.16 "Hg3 mi
3:35 AM25 °FLow clouds.12 mph86%30.17 "Hg3 mi
3:15 AM25 °FLow clouds.9 mph86%30.18 "Hg3 mi
2:55 AM25 °FLow clouds.13 mph86%30.18 "Hg3 mi
2:35 AM25 °FLow clouds.13 mph86%30.18 "Hg3 mi
2:15 AM25 °FLow clouds.13 mph86%30.18 "Hg3 mi
1:55 AM25 °FLow clouds.13 mph86%30.18 "Hg2 mi
1:35 AM25 °FLow clouds.9 mph86%30.18 "Hg2 mi
1:15 AM25 °FLow clouds.13 mph86%30.19 "Hg2 mi
12:55 AM25 °FLow clouds.12 mph86%30.19 "Hg3 mi
12:35 AM27 °FLow clouds.12 mph86%30.19 "Hg2 mi
12:15 AM27 °FLow clouds.12 mph93%30.19 "Hg2 mi
11:55 PM
Jan 30
27 °FLow clouds.12 mph93%30.20 "Hg2 mi
11:35 PM28 °FLow clouds.12 mph86%30.19 "Hg2 mi
11:15 PM28 °FLow clouds.9 mph86%30.19 "Hg3 mi
10:55 PM28 °FLow clouds.12 mph93%30.19 "Hg4 mi
10:35 PM28 °FPassing clouds.10 mph86%30.18 "Hg4 mi
10:15 PM27 °FClear.9 mph93%30.18 "Hg6 mi
9:55 PM27 °FClear.10 mph93%30.18 "Hg7 mi
9:35 PM27 °FClear.5 mph93%30.19 "Hg8 mi
9:15 PM27 °FClear.6 mph93%30.19 "Hg10 mi
8:55 PM28 °FClear.5 mph86%30.19 "Hg10 mi
8:15 PM28 °FClear.6 mph86%30.20 "Hg10 mi
7:55 PM27 °FClear.3 mph86%30.21 "Hg10 mi
7:35 PM30 °FClear.5 mph80%30.20 "Hg10 mi
7:15 PM30 °FClear.7 mph80%30.20 "Hg10 mi
6:55 PM30 °FClear.5 mph86%30.21 "Hg10 mi
6:35 PM30 °FClear.6 mph80%30.21 "Hg10 mi
6:15 PM30 °FClear.6 mph80%30.21 "Hg10 mi
5:55 PM30 °FClear.3 mph80%30.21 "Hg10 mi
5:35 PM32 °FClear.3 mph80%30.21 "Hg10 mi
5:15 PM30 °FClear.3 mph80%30.21 "Hg10 mi
4:55 PM34 °FClear.No wind70%30.20 "Hg10 mi
4:35 PM37 °FSunny.No wind60%30.21 "Hg10 mi
4:15 PM39 °FSunny.No wind61%30.21 "Hg10 mi
3:55 PM41 °FSunny.No wind61%30.20 "Hg10 mi
3:35 PM41 °FSunny.No wind57%30.20 "Hg10 mi
3:15 PM41 °FSunny.6 mph57%30.20 "Hg10 mi
2:35 PM43 °FSunny.7 mph53%30.20 "Hg10 mi
2:15 PM43 °FSunny.8 mph53%30.21 "Hg10 mi
1:55 PM43 °FSunny.8 mph53%30.21 "Hg10 mi
1:35 PM43 °FSunny.8 mph53%30.21 "Hg10 mi
1:15 PM43 °FSunny.8 mph49%30.22 "Hg10 mi
12:55 PM43 °FSunny.8 mph49%30.22 "Hg10 mi
12:35 PM43 °FSunny.7 mph49%30.22 "Hg10 mi
12:15 PM43 °FSunny.7 mph49%30.22 "Hg10 mi
11:55 AM41 °FSunny.7 mph53%30.23 "Hg10 mi
11:35 AM41 °FSunny.5 mph57%30.23 "Hg10 mi
11:15 AM39 °FSunny.6 mph65%30.24 "Hg10 mi
10:55 AM39 °FSunny.10 mph65%30.24 "Hg10 mi
10:35 AM36 °FSunny.No wind75%30.24 "Hg10 mi
10:15 AM36 °FSunny.5 mph75%30.24 "Hg10 mi
9:55 AM34 °FSunny.6 mph81%30.23 "Hg10 mi
9:35 AM30 °FSunny.5 mph93%30.23 "Hg10 mi
9:15 AM28 °FSunny.6 mph93%30.21 "Hg10 mi
Weather by CustomWeather, © 2014

See weather overviewHow to use our weather pages